• Join FlightAware (Why Join?)
  • Login
  • US Flag 
05:29PM EDT


 

Airport Tracker/Info


-or-


 

Live Flight TrackerFlight Track Log ✈ BJS339 ✈ 01-Jan-2014 ✈ KTPA - KHPN

Flight Track Log - Related Links

Times and Time Zones

All times are in EST time to prevent confusion due to time zone crossing. See the BJS339 flight status page for this flight to view local times or setup timezone preferences in your user account.

Time Position Orientation Groundspeed Altitude Reporting Facility
EST Latitude Longitude Course Direction KTS MPH feet Rate Location/Type
05:30PM 28.0000 -82.5333 360° North 202 232 1,400  Level Tampa TRACON
05:31PM 28.0500 -82.5333 360° North 250 288 4,200 3,240 Climbing Tampa TRACON
05:35PM 28.3539 -82.5600 356° North 336 387 15,600 3,000 Climbing Jacksonville Center
05:36PM 28.4542 -82.5692 355° North 368 423 18,000 2,160 Climbing Jacksonville Center
05:37PM 28.5628 -82.5781 356° North 398 458 20,000 2,100 Climbing Jacksonville Center
05:38PM 28.6756 -82.5897 355° North 413 475 22,200 2,040 Climbing Jacksonville Center
05:39PM 28.7694 -82.6036 353° North 405 466 24,100 1,800 Climbing Jacksonville Center
05:40PM 28.8822 -82.6175 354° North 405 466 25,900 900 Climbing Jacksonville Center
05:41PM 29.0011 -82.6361 352° North 412 474 26,000 300 Climbing Jacksonville Center
05:42PM 29.1286 -82.6525 354° North 441 507 26,600 900 Climbing Jacksonville Center
05:43PM 29.2558 -82.6689 354° North 446 513 27,900 1,260 Climbing Jacksonville Center
05:44PM 29.3811 -82.6875 353° North 451 519 29,200 1,680 Climbing Jacksonville Center
05:45PM 29.5211 -82.6922 358° North 457 526 31,300 1,800 Climbing Jacksonville Center
05:46PM 29.6506 -82.6919 360° North 455 524 32,800 1,200 Climbing Jacksonville Center
05:47PM 29.7778 -82.6581 13° North 467 537 33,700 840 Climbing Jacksonville Center
05:48PM 29.8883 -82.6050 23° Northeast 472 543 34,500 900 Climbing Jacksonville Center
05:49PM 30.0281 -82.5519 18° North 481 554 35,500 900 Climbing Jacksonville Center
05:50PM 30.1531 -82.4961 21° North 481 554 36,400 900 Climbing Jacksonville Center
05:51PM 30.2803 -82.4428 20° North 481 554 37,300 840 Climbing Jacksonville Center
05:52PM 30.4053 -82.3892 20° North 481 554 38,100 840 Climbing Jacksonville Center
05:53PM 30.5283 -82.3378 20° North 475 547 39,000 720 Climbing Jacksonville Center
05:54PM 30.6533 -82.2864 19° North 475 547 39,600 600 Climbing Jacksonville Center
05:55PM 30.7783 -82.2350 19° North 475 547 40,200 540 Climbing Jacksonville Center
05:56PM 30.9014 -82.1808 21° North 465 535 40,700 360 Climbing Jacksonville Center
05:57PM 31.0264 -82.1264 20° North 471 542 41,000 120 Climbing Jacksonville Center
05:58PM 31.1514 -82.0744 20° North 471 542 41,000  Level Jacksonville Center
05:59PM 31.2803 -82.0222 19° North 471 542 41,000  Level Jacksonville Center
06:00PM 31.4072 -81.9653 21° North 477 549 41,000  Level Jacksonville Center
06:01PM 31.5364 -81.9078 21° North 492 566 41,000  Level Jacksonville Center
06:02PM 31.6550 -81.8578 20° North 492 566 41,000  Level Jacksonville Center
06:03PM 31.7986 -81.7950 20° North 492 566 41,000  Level Jacksonville Center
06:04PM 31.9317 -81.7394 20° North 498 573 41,000  Level Jacksonville Center
06:05PM 32.0503 -81.6867 21° North 504 580 41,000  Level Jacksonville Center
06:06PM 32.1978 -81.6233 20° North 504 580 41,000  Level Jacksonville Center
06:07PM 32.3286 -81.5650 21° North 511 588 41,000  Level Jacksonville Center
06:08PM 32.4492 -81.4992 25° Northeast 506 582 41,000  Level Jacksonville Center
06:09PM 32.5750 -81.3764 39° Northeast 527 606 41,000  Level Jacksonville Center
06:10PM 32.6758 -81.2661 43° Northeast 539 620 41,000  Level Jacksonville Center
06:11PM 32.7678 -81.1189 53° Northeast 539 620 41,000  Level Jacksonville Center
06:12PM 32.8553 -80.9661 56° Northeast 549 632 41,000  Level Jacksonville Center
06:13PM 32.9428 -80.8158 55° Northeast 554 638 41,000  Level Jacksonville Center
06:14PM 33.0319 -80.6625 55° Northeast 559 643 41,000  Level Jacksonville Center
06:15PM 33.1211 -80.5117 55° Northeast 559 643 41,000  Level Jacksonville Center
06:16PM 33.2161 -80.3575 54° Northeast 565 650 41,000  Level Jacksonville Center
06:17PM 33.3106 -80.1833 57° Northeast 570 656 41,000  Level Jacksonville Center
06:18PM 33.3992 -80.0264 56° Northeast 565 650 41,000  Level Jacksonville Center
06:19PM 33.4831 -79.8719 57° Northeast 565 650 41,000  Level Jacksonville Center
06:20PM 33.5711 -79.7144 56° Northeast 565 650 41,000 -120 Level Jacksonville Center
06:21PM 33.6608 -79.5589 55° Northeast 565 650 40,800 -600 Descending Jacksonville Center
06:22PM 33.7344 -79.4214 57° Northeast 557 641 39,900 -960 Descending Jacksonville Center
06:23PM 33.8278 -79.2550 56° Northeast 550 633 38,900 -480 Descending Jacksonville Center
06:24PM 33.9131 -79.1014 56° Northeast 550 633 39,000  Climbing Jacksonville Center
06:25PM 34.0064 -78.9519 53° Northeast 550 633 39,000  Level Jacksonville Center
06:27PM 34.2822 -78.6758 40° Northeast 534 615 39,000  Level Washington Center
06:28PM 34.4000 -78.5569 40° Northeast 544 626 39,000  Level Washington Center
06:29PM 34.5156 -78.4403 40° Northeast 544 626 39,000  Level Washington Center
06:30PM 34.6353 -78.3206 39° Northeast 549 632 39,000  Level Washington Center
06:31PM 34.7528 -78.1981 41° Northeast 549 632 39,000  Level Washington Center
06:32PM 34.8531 -78.0875 42° Northeast 543 625 39,000  Level Washington Center
06:33PM 34.9725 -77.9694 39° Northeast 543 625 39,000  Level Washington Center
06:34PM 35.0917 -77.8461 40° Northeast 548 631 39,000  Level Washington Center
06:35PM 35.2108 -77.7225 40° Northeast 548 631 39,000  Level Washington Center
06:36PM 35.3275 -77.6008 40° Northeast 548 631 39,000  Level Washington Center
06:37PM 35.4483 -77.4864 38° Northeast 548 631 39,000  Level Washington Center
06:38PM 35.5900 -77.3647 35° Northeast 553 636 39,000  Level Washington Center
06:39PM 35.7147 -77.2575 35° Northeast 553 636 39,000  Level Washington Center
06:40PM 35.8414 -77.1472 35° Northeast 553 636 39,000  Level Washington Center
06:41PM 35.9489 -77.0494 36° Northeast 547 629 39,000  Level Washington Center
06:42PM 36.0714 -76.9411 36° Northeast 547 629 39,000  Level Washington Center
06:43PM 36.1933 -76.8325 36° Northeast 547 629 39,000  Level Washington Center
06:44PM 36.3133 -76.7236 36° Northeast 547 629 39,000  Level Washington Center
06:45PM 36.4375 -76.6144 35° Northeast 547 629 39,000  Level Washington Center
06:46PM 36.5614 -76.5047 35° Northeast 547 629 39,000  Level Washington Center
06:47PM 36.6853 -76.3922 36° Northeast 552 635 39,000  Level Washington Center
06:48PM 36.8197 -76.2664 37° Northeast 552 635 39,000  Level Washington Center
06:49PM 36.9433 -76.1689 32° Northeast 546 628 39,000  Level Washington Center
06:50PM 37.0708 -76.1100 20° North 520 598 39,000  Level Washington Center
06:51PM 37.2131 -76.0353 23° Northeast 514 592 39,000  Level Washington Center
06:52PM 37.3444 -75.9656 23° Northeast 514 592 39,000  Level Washington Center
06:53PM 37.4783 -75.8928 23° Northeast 514 592 39,000  Level Washington Center
06:54PM 37.6097 -75.8067 27° Northeast 519 597 39,000  Level Washington Center
06:55PM 37.7392 -75.7100 31° Northeast 530 610 39,000  Level Washington Center
06:56PM 37.8708 -75.6103 31° Northeast 542 624 39,000  Level Washington Center
06:57PM 37.9958 -75.5128 32° Northeast 537 618 39,000  Level Washington Center
06:58PM 38.1272 -75.4228 28° Northeast 532 612 39,000  Level Washington Center
06:59PM 38.2603 -75.3378 27° Northeast 526 605 39,000  Level Washington Center
07:00PM 38.3936 -75.2553 26° Northeast 520 598 39,000  Level Washington Center
07:01PM 38.5247 -75.1697 27° Northeast 520 598 39,000  Level Washington Center
07:02PM 38.6558 -75.0814 28° Northeast 520 598 39,000 -180 Level Washington Center
07:03PM 38.7889 -75.0003 25° Northeast 525 604 38,700 -720 Descending Washington Center
07:04PM 38.9239 -74.9167 26° Northeast 531 611 37,600 -1,260 Descending Washington Center
07:05PM 39.0525 -74.8325 27° Northeast 526 605 36,200 -1,680 Descending Washington Center
07:06PM 39.1728 -74.7242 35° Northeast 526 605 34,300 -1,920 Descending Washington Center
07:07PM 39.2883 -74.6019 39° Northeast 526 605 32,400 -2,640 Descending Washington Center
07:09PM 39.5211 -74.3583 39° Northeast 538 619 26,300 -2,820 Descending New York Center
07:10PM 39.6267 -74.2506 38° Northeast 517 595 23,800 -2,040 Descending New York Center
07:11PM 39.7256 -74.1419 40° Northeast 481 554 22,300 -1,500 Descending New York Center
07:12PM 39.8331 -74.0283 39° Northeast 459 528 20,900 -720 Descending New York Center
07:13PM 39.9297 -73.9244 39° Northeast 453 521 20,900 -540 Level New York Center
07:15PM 40.1072 -73.7353 39° Northeast 450 518 19,300 -900 Descending Boston Center
07:16PM 40.2103 -73.6244 39° Northeast 433 498 18,200 -840 Descending Boston Center
07:17PM 40.3031 -73.5261 39° Northeast 429 494 17,700 -600 Descending Boston Center
07:18PM 40.3989 -73.4478 32° Northeast 414 476 17,000 -360 Descending Boston Center
07:19PM 40.5050 -73.4097 15° North 394 453 17,000  Level Boston Center
07:20PM 40.6106 -73.3714 15° North 392 451 17,000 -120 Level Boston Center
07:21PM 40.7075 -73.3369 15° North 363 418 16,800 -1,080 Descending Boston Center
07:22PM 40.8175 -73.2531 30° Northeast 395 455 14,800 -1,980 Descending Boston Center
07:23PM 40.8792 -73.1297 56° Northeast 402 463 12,700 -2,040 Descending Boston Center
07:24PM 40.9528 -73.0378 43° Northeast 379 436 10,800 -2,040 Descending Boston Center
07:25PM 41.0253 -73.0558 349° North 301 346 8,600 -2,340 Descending Boston Center
07:26PM 41.0536 -73.1275 298° West 246 283 6,100 -1,980 Descending Boston Center
07:27PM 41.0789 -73.2014 294° West 227 261 4,600 -1,080 Descending Boston Center
07:28PM 41.0872 -73.2842 278° West 236 272 4,000 -300 Descending Boston Center
07:29PM 41.0694 -73.3656 254° West 233 268 4,000 -420 Level Boston Center
07:31PM 41.0333 -73.4667 245° Southwest 231 266 3,100 -660 Descending New York TRACON
07:32PM 41.0000 -73.5333 236° Southwest 194 223 2,600 -540 Descending New York TRACON
07:33PM 40.9833 -73.6000 252° West 188 216 2,100 -360 Descending New York TRACON
07:34PM 41.0000 -73.6500 294° West 177 204 1,900 -480 Descending New York TRACON
07:35PM 41.0333 -73.6833 323° Northwest 129 148 1,100 -840 Descending New York TRACON